Regional Weather Roundup
Issued by NWS

Home | Current Version | Previous Version | Graphics & Text | Print | Product List | Glossary On
Versions: 1 2 3 4 5 6 7 8 9 10 11 12 13 14 15 16 17 18 19 20 21 22 23 24 25 26 27 28 29 30 31 32 33 34 35 36 37 38 39 40 41 42 43 44 45 46 47 48 49 50
000
ASUS44 KMEG 240210
RWRTN
TENNESSEE HOURLY STATE WEATHER ROUNDUP
NATIONAL WEATHER SERVICE MEMPHIS TN
900 PM CDT THU OCT 23 2014

TNZ002-004-019-021-049-052-054-088>092-240300-
WEST TENNESSEE

CITY           SKY/WX    TMP DP  RH WIND       PRES   REMARKS
MEMPHIS INTL   CLOUDY    57  45  64 CALM      30.13S
NWS MEMPHIS      N/A     53 N/A N/A MISG        N/A
JACKSON        CLOUDY    52  46  80 CALM      30.14R
DYERSBURG      CLOUDY    52  37  58 N3        30.14F
UNION CITY     CLEAR     48  46  93 CALM      30.13S
PARIS          CLEAR     48  45  87 E3        30.15S
HUNTINGDON     CLOUDY    52  44  74 N6        30.14F
LEXINGTON      CLEAR     54  46  76 NE5       30.13S
SAVANNAH       CLEAR     52  52 100 NE6       30.13F
$$

TNZ008-025-027-028-033-062-065-066-240300-
NORTH MIDDLE TENNESSEE

CITY           SKY/WX    TMP DP  RH WIND       PRES   REMARKS
NASHVILLE      CLOUDY    54  44  69 NE7       30.13R
CLARKSVILLE    CLOUDY    53  43  68 CALM      30.14S
SMYRNA         CLOUDY    52  45  77 NE6       30.14R
COOKEVILLE     CLEAR     45  43  93 CALM      30.12R
CROSSVILLE     CLOUDY    49  41  74 CALM      30.13R
$$

TNZ061-075-076-078-094-096-097-240300-
SOUTH MIDDLE TENNESSEE

CITY           SKY/WX    TMP DP  RH WIND       PRES   REMARKS
FAYETTEVILLE   CLEAR     52  41  66 NE6       30.12R
TULLAHOMA      CLEAR     50  43  76 CALM      30.13R
WINCHESTER     CLEAR     50  45  81 CALM      30.13R
MCMINNVILLE    CLEAR     48  46  93 CALM      30.13R
COLUMBIA         N/A     52  52 100 CALM      30.12R
SHELBYVILLE    CLEAR     48  46  93 CALM      30.12F
$$

TNZ017-018-042-046-047-240300-
NORTHEAST TENNESSEE

CITY           SKY/WX    TMP DP  RH WIND       PRES   REMARKS
TRI CITIES     CLEAR     43  40  89 CALM      30.15R
ELIZABETHTON   CLEAR     39  37  93 CALM      30.14S
$$

TNZ012-013-036-069-073-074-240300-
CENTRAL EAST TENNESSEE

CITY           SKY/WX    TMP DP  RH WIND       PRES   REMARKS
KNOXVILLE      MOCLDY    51  42  71 N6        30.10S
OAK RIDGE      PTCLDY    49  45  86 CALM      30.13R
GATLINBURG     CLEAR     45  41  87 SW3       30.12R
MORRISTOWN     CLEAR     46  43  87 CALM      30.13S
$$

TNZ083-085-099-240300-
SOUTHEAST TENNESSEE

CITY           SKY/WX    TMP DP  RH WIND       PRES   REMARKS
CHATTANOOGA    CLOUDY    54  46  74 CALM      30.10R
$$

SKY/WX REPORTED AS FAIR MEANS FEW OR NO CLOUDS BELOW
12 THOUSAND FEET.




USA.gov is the U.S. government's official web portal to all federal, state and local government web resources and services.